QPF
0.00 0.00 0.00 0.00 0.00 0.00 0.00 0.00 0.00 0.00 0.00 0.00 0.00 0.00 0.00 0.00 0.00 0.00 0.00 0.02 0.01 0.00 0.00 0.00 0.01 0.01 0.01 0.01 0.01 0.00 0.00 0.00 0.10 0.50 0.99 1.00 0.77 0.77
0.00 0.00 0.00 0.00 0.00 0.00 0.00 0.00 0.00 0.00 0.00 0.00 0.00 0.00 0.00 0.00 0.00 0.00 0.00 0.01 0.02 0.01 0.01 0.01 0.01 0.01 0.01 0.01 0.00 0.00 0.01 0.02 0.01 0.04 0.11 0.33 0.58 0.83
0.00 0.00 0.00 0.00 0.00 0.00 0.00 0.00 0.00 0.00 0.00 0.00 0.00 0.00 0.00 0.00 0.00 0.00 0.00 0.00 0.00 0.01 0.01 0.01 0.01 0.01 0.01 0.01 0.01 0.01 0.01 0.02 0.06 0.06 0.02 0.02 0.05 0.15
0.00 0.00 0.00 0.00 0.00 0.00 0.00 0.00 0.00 0.00 0.00 0.00 0.00 0.00 0.00 0.00 0.00 0.00 0.00 0.00 0.00 0.00 0.00 0.01 0.01 0.01 0.02 0.02 0.02 0.02 0.02 0.02 0.03 0.08 0.08 0.06 0.03 0.01
0.00 0.00 0.00 0.00 0.00 0.00 0.00 0.00 0.00 0.00 0.00 0.00 0.00 0.00 0.00 0.00 0.00 0.00 0.00 0.00 0.00 0.00 0.00 0.00 0.01 0.01 0.01 0.03 0.03 0.02 0.02 0.04 0.04 0.04 0.07 0.09 0.06 0.02
0.00 0.00 0.00 0.00 0.00 0.00 0.00 0.00 0.00 0.00 0.00 0.00 0.00 0.00 0.00 0.00 0.00 0.00 0.00 0.01 0.01 0.00 0.00 0.00 0.00 0.00 0.01 0.01 0.02 0.04 0.04 0.02 0.03 0.05 0.05 0.05 0.08 0.07
0.00 0.00 0.00 0.00 0.00 0.00 0.00 0.00 0.00 0.00 0.00 0.00 0.00 0.00 0.00 0.00 0.00 0.00 0.00 0.00 0.01 0.00 0.00 0.00 0.00 0.00 0.00 0.02 0.02 0.01 0.02 0.04 0.04 0.03 0.04 0.06 0.05 0.09
0.00 0.00 0.00 0.00 0.00 0.00 0.00 0.00 0.00 0.00 0.00 0.00 0.00 0.00 0.00 0.00 0.00 0.00 0.00 0.01 0.01 0.00 0.00 0.02 0.00 0.01 0.00 0.02 0.05 0.04 0.02 0.03 0.04 0.05 0.04 0.03 0.05 0.07
0.00 0.00 0.00 0.00 0.00 0.00 0.00 0.00 0.00 0.00 0.00 0.00 0.00 0.00 0.00 0.00 0.00 0.00 0.00 0.01 0.03 0.00 0.00 0.00 0.00 0.01 0.02 0.00 0.01 0.02 0.02 0.02 0.02 0.03 0.04 0.04 0.03 0.04
0.00 0.00 0.00 0.00 0.00 0.00 0.00 0.00 0.00 0.00 0.00 0.00 0.00 0.00 0.00 0.00 0.00 0.00 0.00 0.00 0.03 0.01 0.00 0.00 0.00 0.00 0.03 0.00 0.00 0.00 0.01 0.01 0.03 0.05 0.04 0.05 0.05 0.04
0.00 0.00 0.00 0.00 0.00 0.00 0.00 0.00 0.00 0.00 0.00 0.00 0.00 0.00 0.00 0.00 0.00 0.00 0.00 0.00 0.00 0.01 0.00 0.01 0.00 0.00 0.03 0.01 0.00 0.00 0.00 0.00 0.01 0.02 0.06 0.06 0.04 0.06
0.00 0.00 0.00 0.00 0.00 0.00 0.00 0.00 0.00 0.00 0.00 0.00 0.00 0.00 0.00 0.00 0.00 0.00 0.00 0.00 0.00 0.00 0.00 0.00 0.00 0.00 0.01 0.00 0.00 0.00 0.00 0.00 0.00 0.02 0.03 0.05 0.07 0.05
0.00 0.00 0.00 0.00 0.00 0.00 0.00 0.00 0.00 0.00 0.00 0.00 0.00 0.00 0.00 0.00 0.00 0.00 0.00 0.00 0.00 0.00 0.00 0.00 0.01 0.00 0.00 0.00 0.00 0.00 0.00 0.00 0.00 0.00 0.01 0.04 0.05 0.06
0.00 0.00 0.00 0.00 0.00 0.00 0.00 0.00 0.00 0.00 0.00 0.00 0.00 0.00 0.00 0.00 0.00 0.00 0.00 0.00 0.00 0.00 0.00 0.00 0.00 0.01 0.00 0.00 0.00 0.00 0.00 0.00 0.00 0.00 0.00 0.01 0.01 0.04
0.00 0.00 0.00 0.00 0.00 0.00 0.00 0.00 0.00 0.00 0.00 0.00 0.00 0.00 0.00 0.00 0.00 0.00 0.00 0.00 0.00 0.00 0.00 0.00 0.00 0.00 0.00 0.00 0.00 0.00 0.00 0.00 0.00 0.00 0.00 0.01 0.01 0.01
0.00 0.00 0.00 0.00 0.00 0.00 0.00 0.00 0.00 0.00 0.00 0.00 0.00 0.00 0.00 0.00 0.00 0.00 0.00 0.00 0.00 0.00 0.00 0.00 0.00 0.00 0.00 0.00 0.00 0.00 0.00 0.00 0.00 0.00 0.00 0.00 0.01 0.01
0.00 0.00 0.00 0.00 0.00 0.00 0.00 0.00 0.00 0.00 0.00 0.00 0.00 0.00 0.00 0.00 0.00 0.00 0.00 0.00 0.00 0.00 0.00 0.00 0.00 0.00 0.00 0.00 0.00 0.00 0.00 0.00 0.00 0.00 0.00 0.00 0.01 0.01
0.00 0.00 0.00 0.00 0.00 0.00 0.00 0.00 0.00 0.00 0.00 0.00 0.00 0.00 0.00 0.00 0.00 0.00 0.00 0.00 0.00 0.00 0.00 0.00 0.00 0.00 0.00 0.00 0.00 0.00 0.00 0.00 0.00 0.00 0.00 0.00 0.00 0.00
0.00 0.00 0.00 0.00 0.00 0.00 0.00 0.00 0.00 0.00 0.00 0.00 0.00 0.00 0.00 0.00 0.00 0.00 0.00 0.00 0.00 0.00 0.00 0.00 0.00 0.00 0.00 0.00 0.00 0.00 0.00 0.00 0.00 0.00 0.00 0.00 0.00 0.00
0.00 0.00 0.00 0.00 0.00 0.00 0.00 0.00 0.00 0.00 0.00 0.00 0.00 0.00 0.00 0.00 0.00 0.00 0.00 0.00 0.00 0.00 0.00 0.00 0.00 0.00 0.00 0.00 0.00 0.00 0.00 0.00 0.00 0.00 0.00 0.00 0.00 0.00
0.00 0.00 0.00 0.00 0.00 0.00 0.00 0.00 0.00 0.00 0.00 0.00 0.00 0.00 0.00 0.00 0.00 0.00 0.00 0.00 0.00 0.00 0.00 0.00 0.00 0.00 0.00 0.00 0.00 0.00 0.00 0.00 0.00 0.00 0.00 0.00 0.00 0.00
0.00 0.00 0.00 0.00 0.00 0.00 0.00 0.00 0.00 0.00 0.00 0.00 0.00 0.00 0.00 0.00 0.00 0.00 0.00 0.00 0.00 0.00 0.00 0.00 0.00 0.00 0.00 0.00 0.00 0.00 0.00 0.00 0.00 0.00 0.00 0.00 0.00 0.01
0.00 0.00 0.00 0.00 0.00 0.00 0.00 0.00 0.00 0.00 0.00 0.00 0.00 0.00 0.00 0.00 0.00 0.00 0.00 0.00 0.00 0.00 0.00 0.00 0.00 0.00 0.00 0.00 0.00 0.00 0.00 0.00 0.00 0.00 0.00 0.00 0.00 0.00
MSLP
1023.08 1022.93 1022.69 1022.37 1021.99 1021.67 1021.51 1021.16 1021.25 1020.83 1019.87 1018.68 1018.14 1017.45 1017.16 1016.97 1016.55 1016.24 1015.75 1015.24 1014.71 1014.18 1013.69 1013.03 1012.15 1011.11 1009.79 1008.36 1007.26 1006.48 1005.88 1005.31 1004.61 1004.07 1003.56 1003.67 1004.41 1005.54
1023.70 1023.58 1023.45 1023.10 1022.75 1022.46 1022.17 1021.92 1021.56 1021.36 1020.61 1019.23 1018.39 1018.08 1017.80 1017.67 1017.00 1016.45 1016.03 1015.79 1015.36 1014.86 1014.38 1013.69 1012.90 1011.94 1010.84 1009.54 1008.35 1007.29 1006.33 1005.81 1004.96 1004.14 1003.55 1003.15 1003.90 1004.61
1024.35 1024.23 1024.09 1023.81 1023.68 1023.37 1022.93 1022.75 1022.42 1021.95 1020.97 1019.81 1018.78 1018.60 1018.60 1018.58 1017.92 1016.79 1016.20 1016.03 1015.69 1015.19 1014.74 1014.23 1013.50 1012.71 1011.79 1010.64 1009.40 1008.17 1007.19 1006.35 1005.29 1004.51 1003.31 1002.64 1002.83 1003.35
1024.91 1024.69 1024.67 1024.61 1024.50 1024.35 1023.94 1023.70 1023.29 1022.32 1021.49 1020.75 1019.82 1019.62 1019.73 1019.57 1018.88 1017.66 1016.53 1016.14 1015.91 1015.32 1015.16 1014.69 1014.11 1013.36 1012.56 1011.58 1010.58 1009.49 1008.26 1007.00 1006.28 1005.16 1004.41 1003.12 1002.80 1002.76
1025.15 1025.16 1025.19 1025.09 1025.13 1025.06 1024.69 1024.50 1024.05 1023.07 1022.18 1021.46 1021.00 1020.83 1020.81 1020.55 1019.47 1018.46 1017.46 1016.67 1016.12 1015.93 1015.42 1015.09 1014.68 1014.11 1013.39 1012.46 1011.55 1010.55 1009.35 1008.16 1007.44 1006.43 1005.51 1004.60 1003.86 1003.22
1025.45 1025.40 1025.51 1025.37 1025.33 1025.31 1025.08 1024.98 1024.68 1023.89 1023.16 1022.52 1022.32 1022.09 1021.85 1021.34 1020.58 1019.55 1018.08 1017.29 1017.01 1016.55 1016.04 1015.39 1014.99 1014.71 1013.94 1013.30 1012.46 1011.46 1010.59 1009.45 1008.41 1007.43 1006.76 1006.00 1004.97 1004.15
1025.95 1025.80 1025.80 1025.75 1025.43 1025.29 1025.33 1025.14 1025.00 1024.68 1024.10 1023.64 1023.50 1023.30 1022.81 1022.08 1021.44 1020.76 1019.62 1018.45 1017.48 1017.71 1016.94 1015.98 1015.56 1015.16 1014.70 1013.95 1013.41 1012.65 1011.79 1010.59 1009.33 1008.70 1007.44 1006.93 1005.99 1004.97
1026.17 1026.21 1026.31 1026.30 1026.16 1025.75 1025.25 1025.02 1025.03 1025.22 1025.00 1024.75 1024.64 1024.41 1024.06 1023.64 1022.79 1021.76 1020.65 1019.36 1018.16 1018.47 1017.96 1016.58 1016.28 1015.79 1015.46 1014.87 1014.13 1013.52 1012.73 1011.73 1010.48 1009.05 1009.15 1008.00 1006.87 1006.08
1026.31 1026.38 1026.65 1026.74 1026.60 1026.09 1025.18 1025.03 1025.25 1025.07 1025.11 1025.10 1025.07 1024.80 1024.48 1024.13 1023.46 1022.33 1021.61 1020.69 1020.11 1020.32 1018.93 1017.74 1017.02 1016.59 1016.05 1015.66 1014.88 1014.22 1013.70 1012.96 1012.09 1011.39 1010.54 1009.05 1008.21 1007.09
1026.57 1026.90 1026.94 1027.19 1026.93 1026.32 1025.61 1025.56 1025.69 1025.69 1025.47 1025.14 1025.14 1024.86 1024.47 1023.99 1023.75 1023.12 1022.39 1021.48 1020.47 1020.48 1020.34 1019.46 1018.00 1017.26 1016.37 1016.34 1015.71 1015.07 1014.60 1014.01 1013.20 1012.31 1011.07 1010.30 1009.48 1008.90
1026.86 1027.30 1027.39 1027.50 1027.20 1026.74 1026.33 1026.18 1026.29 1026.01 1025.22 1024.67 1024.39 1024.22 1024.05 1023.68 1023.39 1023.26 1022.63 1022.10 1021.57 1021.22 1021.20 1020.78 1019.26 1018.07 1016.93 1016.70 1016.56 1016.04 1015.33 1014.77 1014.05 1013.22 1012.15 1011.45 1010.59 1009.47
1027.17 1027.50 1027.53 1027.69 1027.61 1027.11 1026.98 1026.78 1026.65 1026.31 1025.69 1025.07 1024.99 1024.71 1024.50 1024.28 1023.83 1023.67 1023.47 1023.12 1022.94 1022.20 1022.00 1021.43 1020.31 1019.56 1018.11 1017.22 1017.13 1016.79 1016.20 1015.57 1014.95 1014.30 1013.24 1012.35 1011.45 1010.91
1026.90 1027.65 1028.13 1027.94 1027.82 1027.54 1027.29 1027.03 1026.62 1026.31 1026.03 1025.71 1025.47 1025.39 1025.19 1024.83 1024.38 1023.90 1023.57 1023.41 1023.54 1023.37 1022.70 1022.04 1021.55 1020.82 1020.03 1018.73 1017.86 1017.68 1017.15 1016.72 1016.02 1015.37 1014.65 1013.75 1012.94 1012.13
1027.50 1028.16 1028.48 1028.17 1027.91 1027.61 1027.55 1026.90 1026.60 1026.75 1026.60 1026.32 1026.16 1026.05 1025.67 1025.31 1024.90 1024.24 1023.68 1023.26 1023.21 1023.24 1022.83 1022.30 1022.21 1021.57 1021.05 1020.12 1019.44 1018.62 1017.89 1017.19 1016.71 1016.16 1015.31 1014.49 1013.71 1013.28
1027.86 1028.22 1028.13 1027.94 1027.43 1027.36 1027.18 1026.96 1027.19 1027.40 1027.08 1027.14 1027.03 1026.79 1026.04 1025.71 1025.08 1024.73 1024.04 1023.38 1022.95 1022.86 1022.66 1022.42 1022.29 1021.69 1021.41 1021.23 1020.66 1019.71 1018.38 1017.56 1017.34 1016.70 1015.96 1015.35 1014.77 1014.15
1027.80 1027.97 1027.82 1027.84 1027.79 1027.74 1027.26 1027.35 1027.60 1027.74 1027.51 1027.55 1027.46 1026.87 1026.35 1025.77 1025.47 1025.09 1024.63 1023.88 1023.51 1023.20 1022.76 1022.52 1022.21 1021.71 1021.78 1021.36 1020.98 1020.39 1019.65 1019.14 1018.30 1017.64 1016.94 1016.31 1015.75 1015.23
1028.10 1027.70 1027.46 1027.51 1027.64 1027.67 1027.61 1027.71 1027.96 1027.94 1027.89 1027.61 1027.45 1027.25 1026.78 1026.31 1025.95 1025.45 1025.21 1024.76 1024.21 1023.75 1023.28 1022.95 1022.61 1022.04 1021.70 1021.35 1021.06 1020.73 1020.22 1019.60 1018.92 1018.10 1017.39 1016.87 1016.30 1015.68
1027.73 1027.56 1027.67 1027.87 1028.01 1028.11 1028.25 1028.23 1028.02 1028.15 1028.13 1027.89 1027.74 1027.64 1027.39 1026.82 1026.45 1025.94 1025.76 1025.57 1025.00 1024.39 1023.87 1023.47 1023.28 1022.79 1022.09 1021.75 1021.28 1020.96 1020.60 1020.19 1019.43 1018.62 1017.93 1017.29 1016.60 1015.98
1027.66 1027.53 1027.77 1028.02 1028.13 1028.05 1028.17 1028.27 1028.50 1028.38 1028.24 1028.26 1028.21 1028.13 1027.86 1027.35 1027.02 1026.71 1026.51 1026.34 1025.73 1025.08 1024.51 1023.97 1023.76 1023.35 1022.82 1022.58 1021.94 1021.31 1021.01 1020.50 1019.88 1019.08 1018.43 1017.91 1017.34 1016.61
1027.11 1027.49 1027.83 1028.02 1028.00 1028.13 1028.38 1028.64 1028.74 1028.77 1028.79 1028.75 1028.66 1028.57 1028.35 1027.97 1027.70 1027.49 1027.21 1026.87 1026.43 1025.93 1025.31 1024.67 1024.24 1023.80 1023.28 1022.99 1022.73 1022.07 1021.15 1020.88 1020.21 1019.44 1018.74 1018.31 1017.75 1016.81
1027.21 1027.47 1027.86 1028.02 1028.15 1028.36 1028.71 1028.92 1028.94 1028.99 1029.09 1029.07 1029.02 1028.94 1028.80 1028.56 1028.41 1028.07 1027.88 1027.47 1027.07 1026.78 1026.32 1025.62 1024.90 1024.25 1023.39 1023.02 1023.13 1022.39 1021.70 1021.22 1020.54 1019.95 1019.43 1018.77 1017.94 1017.15
1027.31 1027.60 1027.97 1028.23 1028.48 1028.66 1028.83 1028.97 1029.00 1029.10 1029.16 1029.30 1029.39 1029.32 1029.17 1028.92 1028.73 1028.60 1028.42 1028.12 1027.73 1027.49 1027.23 1026.47 1025.57 1024.77 1024.13 1023.71 1023.68 1023.18 1022.48 1021.98 1021.17 1020.52 1019.92 1019.50 1018.98 1018.28
1027.44 1027.73 1028.05 1028.36 1028.68 1028.82 1028.99 1029.14 1029.25 1029.40 1029.51 1029.64 1029.73 1029.64 1029.47 1029.30 1029.04 1028.92 1028.74 1028.60 1028.40 1028.18 1027.99 1027.28 1026.58 1025.85 1025.24 1024.74 1024.49 1024.00 1023.42 1022.89 1022.09 1021.39 1020.65 1020.11 1019.53 1019.07
Thickness
5373 5370 5369 5368 5368 5369 5369 5371 5369 5367 5374 5391 5396 5404 5408 5413 5418 5422 5427 5433 5440 5446 5452 5460 5471 5485 5502 5522 5539 5549 5558 5573 5588 5596 5608 5607 5614 5608
5363 5361 5358 5358 5359 5359 5359 5361 5364 5365 5370 5383 5391 5395 5398 5401 5408 5414 5418 5421 5426 5432 5438 5446 5455 5467 5481 5497 5513 5528 5542 5555 5568 5581 5588 5610 5603 5606
5353 5351 5350 5350 5348 5349 5351 5352 5356 5359 5367 5376 5385 5386 5387 5388 5395 5404 5410 5413 5416 5421 5426 5433 5440 5450 5462 5476 5490 5505 5520 5534 5549 5562 5580 5592 5598 5602
5344 5344 5342 5341 5340 5339 5341 5343 5346 5354 5361 5364 5373 5374 5373 5375 5380 5389 5398 5402 5406 5411 5414 5419 5426 5434 5444 5456 5468 5481 5496 5513 5525 5538 5553 5575 5584 5596
5339 5336 5335 5334 5331 5331 5333 5333 5337 5345 5352 5357 5360 5360 5360 5361 5369 5376 5383 5389 5394 5396 5401 5405 5410 5416 5425 5436 5447 5459 5474 5488 5503 5515 5531 5547 5561 5577
5334 5331 5328 5328 5325 5324 5325 5324 5326 5332 5338 5343 5343 5343 5344 5348 5353 5359 5370 5376 5377 5381 5386 5391 5395 5399 5408 5418 5428 5439 5450 5465 5480 5495 5506 5521 5538 5554
5325 5324 5322 5321 5322 5321 5319 5318 5318 5320 5323 5326 5326 5326 5328 5332 5336 5340 5349 5357 5364 5362 5367 5374 5379 5384 5389 5399 5407 5417 5428 5443 5459 5470 5487 5498 5514 5531
5317 5317 5315 5314 5313 5314 5315 5315 5313 5308 5308 5309 5308 5307 5308 5309 5314 5321 5329 5337 5349 5344 5347 5358 5360 5365 5370 5377 5386 5396 5406 5419 5435 5452 5458 5475 5491 5506
5311 5311 5307 5306 5305 5308 5310 5308 5304 5302 5300 5296 5293 5292 5294 5296 5297 5303 5306 5314 5318 5314 5325 5334 5341 5344 5350 5355 5365 5374 5383 5395 5407 5418 5432 5451 5464 5481
5304 5301 5300 5296 5295 5298 5300 5297 5293 5291 5290 5289 5286 5284 5284 5284 5283 5284 5286 5291 5298 5297 5297 5302 5318 5325 5333 5335 5343 5352 5361 5371 5383 5395 5413 5426 5438 5449
5295 5291 5289 5286 5286 5286 5286 5284 5280 5278 5279 5278 5276 5273 5271 5269 5268 5268 5270 5271 5270 5274 5273 5276 5289 5302 5313 5317 5321 5328 5339 5348 5361 5373 5387 5401 5414 5430
5286 5281 5280 5276 5274 5275 5272 5269 5264 5263 5264 5263 5261 5257 5254 5252 5252 5250 5249 5249 5247 5246 5249 5252 5263 5271 5281 5296 5300 5306 5316 5327 5337 5349 5364 5378 5392 5403
5282 5275 5269 5266 5264 5262 5260 5257 5254 5253 5251 5248 5245 5241 5237 5235 5233 5232 5232 5229 5225 5223 5231 5235 5239 5246 5252 5267 5276 5283 5291 5301 5314 5325 5337 5350 5363 5377
5269 5263 5259 5256 5254 5252 5249 5247 5244 5240 5237 5232 5228 5223 5218 5214 5212 5213 5214 5216 5215 5216 5219 5223 5222 5228 5233 5241 5249 5259 5269 5280 5290 5302 5315 5327 5339 5351
5259 5254 5251 5248 5247 5244 5239 5235 5230 5225 5219 5213 5206 5202 5200 5196 5195 5194 5197 5201 5204 5205 5207 5209 5212 5215 5217 5219 5226 5235 5250 5261 5268 5280 5292 5305 5316 5328
5251 5247 5245 5241 5237 5232 5229 5224 5217 5211 5205 5197 5190 5186 5186 5182 5180 5181 5179 5184 5186 5190 5195 5197 5200 5205 5204 5209 5213 5220 5227 5234 5246 5257 5269 5280 5292 5302
5242 5241 5238 5233 5227 5222 5217 5212 5205 5197 5188 5183 5176 5171 5170 5167 5166 5167 5166 5168 5170 5174 5179 5183 5187 5191 5195 5198 5200 5206 5212 5220 5227 5239 5250 5260 5272 5282
5234 5233 5227 5221 5215 5209 5202 5195 5191 5182 5174 5169 5163 5159 5156 5155 5153 5154 5153 5153 5157 5163 5167 5170 5172 5176 5182 5185 5189 5193 5198 5204 5213 5222 5231 5240 5251 5263
5226 5224 5216 5210 5204 5199 5191 5184 5175 5168 5162 5157 5151 5146 5143 5142 5140 5140 5139 5139 5143 5148 5152 5156 5158 5161 5164 5165 5175 5181 5183 5190 5197 5206 5214 5221 5229 5242
5220 5214 5206 5200 5194 5188 5179 5171 5163 5156 5150 5145 5140 5134 5131 5130 5128 5127 5127 5125 5128 5131 5135 5140 5143 5147 5149 5148 5154 5165 5172 5175 5182 5191 5199 5205 5214 5225
5209 5204 5195 5189 5182 5175 5166 5158 5153 5145 5139 5133 5129 5124 5119 5119 5116 5115 5114 5114 5115 5116 5118 5122 5127 5132 5138 5142 5139 5147 5156 5161 5168 5175 5180 5187 5198 5208
5198 5193 5184 5177 5169 5162 5155 5148 5142 5137 5130 5124 5117 5113 5109 5108 5106 5103 5102 5102 5103 5102 5102 5106 5111 5116 5121 5126 5126 5130 5137 5140 5148 5156 5163 5167 5173 5181
5186 5181 5173 5165 5157 5151 5145 5138 5130 5123 5118 5112 5107 5103 5099 5096 5095 5093 5090 5089 5089 5088 5087 5090 5093 5097 5101 5104 5105 5110 5115 5119 5125 5131 5141 5148 5153 5161